Tacoma, WA

8:26 PM PDT on August 23, 2017 (GMT -0700)
McChord Air Force Base

Weather History for KTCM - November, 2012

Change the Weather History Date:

Friday, November 2, 2012

  Actual Average Record
Temperature  
Mean Temperature 52 °F -  
Max Temperature 59 °F 53 °F 68 °F (1970)
Min Temperature 46 °F 34 °F 17 °F (2002)
Degree Days  
Heating Degree Days 12    
Growing Degree Days 2 (Base 50)    
Moisture  
Dew Point 51 °F    
Average Humidity 97    
Maximum Humidity 100    
Minimum Humidity 73    
Precipitation  
Precipitation 0.23 in - - ()
Sea Level Pressure  
Sea Level Pressure 30.01 in    
Wind  
Wind Speed 2 mph (NW)    
Max Wind Speed 7 mph    
Max Gust Speed -    
Visibility 4 miles    
Events Rain    
Averages and records for this station are not official NWS values.
T = Trace of Precipitation, MM = Missing Value Source: NWS Daily Summary

Daily Weather History Graph

Daily Weather History Graph

Search for Another Location

Airport or City:

Trip Planner

Search our weather history database for the weather conditions in past years. The results will help you decide how hot, cold, wet, or windy it might be!

Date:

Astronomy

Nov. 02, 2012 Rise Set
Actual Time 7:55 AM PDT 5:50 PM PDT
Civil Twilight 7:23 AM PDT 6:23 PM PDT
Nautical Twilight 6:47 AM PDT 6:59 PM PDT
Astronomical Twilight 6:11 AM PDT 7:34 PM PDT
Moon 8:34 PM PDT (11/2) 11:28 AM PDT (11/2)
Length of Visible Light 10h 59m
Length of Day
9h 55m
Waning Gibbous, 86% of the Moon is Illuminated
Nov 2
Waning Gibbous
Nov 6
Last Quarter
Nov 13
New
Nov 20
First Quarter
Nov 28
Full

Hourly Weather History & Observations

Time (PDT) Temp. Dew Point Humidity Pressure Visibility Wind Dir Wind Speed Gust Speed Precip Events Conditions
12:58 AM 51.4 °F 51.3 °F 99% 30.04 in 10.0 mi South 2.3 mph - N/A   Overcast
1:58 AM 51.4 °F 51.3 °F 99% 30.04 in 10.0 mi Calm Calm - N/A   Overcast
2:36 AM 51.8 °F 51.8 °F 100% 30.04 in 10.0 mi West 1.2 mph - N/A   Light Drizzle
2:46 AM 51.8 °F 51.8 °F 100% 30.04 in 10.0 mi Calm Calm - N/A   Overcast
2:58 AM 52.2 °F 51.8 °F 99% 30.05 in 10.0 mi Calm Calm - 0.00 in   Overcast
3:58 AM 50.7 °F 50.4 °F 99% 30.04 in 10.0 mi East 3.5 mph - N/A   Overcast
4:58 AM 50.5 °F 50.2 °F 99% 30.06 in 10.0 mi WSW 2.3 mph - N/A   Mostly Cloudy
5:33 AM 48.2 °F 48.2 °F 100% 30.04 in 1.2 mi Calm Calm - N/A   Mostly Cloudy
5:38 AM 48.2 °F 48.2 °F 100% 30.03 in 1.0 mi East 2.3 mph - N/A   Scattered Clouds
5:53 AM 48.2 °F 48.2 °F 100% 30.03 in 1.0 mi ESE 3.5 mph - N/A   Clear
5:58 AM 48.2 °F 47.8 °F 99% 30.05 in 1.0 mi ESE 2.3 mph - N/A   Clear
6:03 AM 48.2 °F 48.2 °F 100% 30.03 in 1.8 mi East 3.5 mph - N/A   Clear
6:08 AM 48.2 °F 48.2 °F 100% 30.03 in 5.0 mi East 2.3 mph - N/A   Clear
6:18 AM 48.2 °F 48.2 °F 100% 30.03 in 2.5 mi East 1.2 mph - N/A   Clear
6:23 AM 48.2 °F 48.2 °F 100% 30.03 in 2.0 mi ESE 1.2 mph - N/A   Clear
6:28 AM 48.2 °F 48.2 °F 100% 30.03 in 1.0 mi ESE 1.2 mph - N/A   Clear
6:33 AM 48.2 °F 48.2 °F 100% 30.02 in 0.8 mi Calm Calm - N/A   Clear
6:38 AM 48.2 °F 48.2 °F 100% 30.02 in 0.8 mi Calm Calm - N/A   Clear
6:48 AM 46.4 °F 46.4 °F 100% 30.02 in 0.8 mi Calm Calm - N/A   Clear
6:53 AM 46.4 °F 46.4 °F 100% 30.02 in 0.8 mi Calm Calm - N/A   Partly Cloudy
6:58 AM 47.3 °F 47.1 °F 99% 30.04 in 1.0 mi Calm Calm - N/A   Partly Cloudy
7:03 AM 48.2 °F 48.2 °F 100% 30.01 in 1.2 mi Calm Calm - N/A   Partly Cloudy
7:08 AM 48.2 °F 48.2 °F 100% 30.01 in 2.5 mi Calm Calm - N/A   Partly Cloudy
7:13 AM 48.2 °F 48.2 °F 100% 30.01 in 5.0 mi Calm Calm - N/A   Partly Cloudy
7:18 AM 48.2 °F 48.2 °F 100% 30.01 in 2.0 mi Calm Calm - N/A   Partly Cloudy
7:23 AM 48.2 °F 48.2 °F 100% 30.01 in 1.2 mi East 1.2 mph - N/A   Clear
7:28 AM 48.2 °F 48.2 °F 100% 30.01 in 1.0 mi Calm Calm - N/A   Partly Cloudy
7:38 AM 48.2 °F 48.2 °F 100% 30.01 in 0.8 mi Calm Calm - N/A   Mostly Cloudy
7:48 AM 48.2 °F 48.2 °F 100% 30.01 in 1.2 mi West 1.2 mph - N/A   Mostly Cloudy
7:53 AM 48.2 °F 48.2 °F 100% 30.01 in 3.0 mi Calm Calm - N/A   Mostly Cloudy
7:58 AM 48.2 °F 46.4 °F 93% 30.03 in 2.0 mi Calm Calm - N/A   Overcast
8:03 AM 46.4 °F 46.4 °F 100% 30.01 in 1.5 mi ESE 1.2 mph - N/A   Overcast
8:08 AM 46.4 °F 46.4 °F 100% 30.02 in 1.0 mi SSE 1.2 mph - N/A   Mostly Cloudy
8:13 AM 46.4 °F 46.4 °F 100% 30.02 in 0.8 mi Calm Calm - N/A   Overcast
8:18 AM 46.4 °F 46.4 °F 100% 30.02 in 0.8 mi South 1.2 mph - N/A   Overcast
8:33 AM 46.4 °F 46.4 °F 100% 30.02 in 1.0 mi SE 1.2 mph - N/A   Overcast
8:38 AM 48.2 °F 46.4 °F 93% 30.02 in 1.2 mi SSE 2.3 mph - N/A   Overcast
8:48 AM 48.2 °F 48.2 °F 100% 30.02 in 3.0 mi ESE 2.3 mph - N/A   Overcast
8:58 AM 48.4 °F 48.2 °F 99% 30.04 in 7.0 mi Calm Calm - N/A   Overcast
9:58 AM 51.4 °F 51.3 °F 99% 30.04 in 10.0 mi ESE 2.3 mph - N/A   Mostly Cloudy
10:58 AM 54.0 °F 52.0 °F 93% 30.04 in 10.0 mi Calm Calm - N/A   Mostly Cloudy
11:50 AM 55.4 °F 51.8 °F 88% 30.02 in 10.0 mi Variable 2.3 mph - N/A   Overcast
11:55 AM 55.4 °F 51.8 °F 88% 30.02 in 10.0 mi Calm Calm - N/A   Overcast
11:58 AM 55.9 °F 52.5 °F 88% 30.04 in 10.0 mi Calm Calm - N/A   Overcast
12:58 PM 58.6 °F 50.5 °F 74% 30.02 in 7.0 mi Calm Calm - N/A   Mostly Cloudy
1:58 PM 59.4 °F 50.7 °F 73% 30.01 in 4.0 mi NW 2.3 mph - N/A   Haze
2:48 PM 57.2 °F 51.8 °F 82% 29.98 in 2.5 mi West 6.9 mph - N/A   Haze
2:58 PM 57.7 °F 51.6 °F 80% 29.99 in 7.0 mi WNW 4.6 mph - N/A   Overcast
3:35 PM 57.2 °F 51.8 °F 82% 29.99 in 6.0 mi West 5.8 mph - N/A Rain Light Rain
3:40 PM 55.4 °F 51.8 °F 88% 29.99 in 2.5 mi WSW 5.8 mph - N/A Rain Light Rain
3:49 PM 55.4 °F 51.8 °F 88% 30.00 in 6.0 mi West 3.5 mph - N/A Rain Light Rain
3:58 PM 55.4 °F 51.8 °F 88% 30.01 in 5.0 mi West 4.6 mph - 0.00 in Rain Light Rain
4:03 PM 55.4 °F 51.8 °F 88% 29.99 in 2.5 mi North 4.6 mph - N/A Rain Light Rain
4:08 PM 55.4 °F 51.8 °F 88% 29.99 in 3.0 mi Variable 4.6 mph - N/A Rain Rain
4:23 PM 53.6 °F 53.6 °F 100% 29.99 in 3.0 mi NW 3.5 mph - N/A Rain Light Rain
4:42 PM 53.6 °F 53.6 °F 100% 29.99 in 2.0 mi Calm Calm - N/A Rain Light Rain
4:49 PM 53.6 °F 53.6 °F 100% 29.99 in 3.0 mi North 3.5 mph - N/A Rain Light Rain
4:58 PM 54.0 °F 53.1 °F 97% 30.01 in 4.0 mi North 1.2 mph - 0.09 in Rain Rain
5:08 PM 53.6 °F 53.6 °F 100% 29.99 in 2.5 mi Calm Calm - N/A Rain Light Rain
5:13 PM 53.6 °F 53.6 °F 100% 29.99 in 3.0 mi Calm Calm - N/A Rain Light Rain
5:43 PM 53.6 °F 53.6 °F 100% 29.99 in 2.5 mi Calm Calm - N/A Rain Light Rain
5:53 PM 53.6 °F 53.6 °F 100% 29.99 in 2.0 mi WNW 2.3 mph - N/A Rain Light Rain
5:58 PM 53.6 °F 53.6 °F 100% 30.00 in 2.5 mi NW 3.5 mph - 0.07 in Rain Rain
6:08 PM 53.6 °F 53.6 °F 100% 29.99 in 4.0 mi NW 3.5 mph - N/A Rain Light Rain
6:30 PM 53.6 °F 53.6 °F 100% 29.99 in 7.0 mi NNW 3.5 mph - N/A   Mostly Cloudy
6:58 PM 53.2 °F 53.1 °F 99% 30.01 in 7.0 mi NE 3.5 mph - 0.02 in   Overcast
7:58 PM 53.2 °F 53.1 °F 99% 30.00 in 6.0 mi East 1.2 mph - N/A   Overcast
8:16 PM 53.6 °F 53.6 °F 100% 29.98 in 7.0 mi Calm Calm - N/A Rain Light Rain
8:26 PM 53.6 °F 53.6 °F 100% 29.99 in 5.0 mi WSW 4.6 mph - N/A   Overcast
8:52 PM 53.6 °F 53.6 °F 100% 29.98 in 5.0 mi Calm Calm - N/A Rain Light Rain
8:58 PM 53.2 °F 53.1 °F 99% 30.00 in 5.0 mi Variable 1.2 mph - 0.00 in Rain Light Rain
9:48 PM 53.6 °F 53.6 °F 100% 29.97 in 6.0 mi NNE 3.5 mph - N/A   Overcast
9:58 PM 52.9 °F 52.7 °F 99% 29.99 in 6.0 mi Calm Calm - 0.04 in   Overcast
10:06 PM 53.6 °F 53.6 °F 100% 29.98 in 6.0 mi Calm Calm - N/A Rain Light Rain
10:16 PM 53.6 °F 53.6 °F 100% 29.98 in 6.0 mi Calm Calm - N/A   Overcast
10:41 PM 53.6 °F 53.6 °F 100% 29.98 in 4.0 mi WNW 3.5 mph - N/A Rain Light Rain
10:57 PM 53.6 °F 53.6 °F 100% 29.97 in 4.0 mi WNW 2.3 mph - N/A   Overcast
10:58 PM 53.6 °F 53.6 °F 100% 29.97 in 4.0 mi WNW 2.3 mph - 0.00 in   Overcast
11:31 PM 53.6 °F 53.6 °F 100% 29.97 in 4.0 mi NW 2.3 mph - N/A Rain Light Rain
11:40 PM 53.6 °F 51.8 °F 94% 29.97 in 4.0 mi NW 4.6 mph - N/A   Overcast
11:58 PM 52.9 °F 52.7 °F 99% 29.99 in 5.0 mi NW 1.2 mph - 0.01 in   Overcast